Weather History for KBAC - December, 2011

Change the Weather History Date:

Saturday, December 10, 2011

  Actual Average (KJMS) Record (KJMS)
Temperature  
Mean Temperature 26 °F 16 °F  
Max Temperature 41 °F 24 °F 55 °F (1939)
Min Temperature 12 °F 7 °F -26 °F (1927)
Degree Days  
Heating Degree Days 38 49  
Month to date heating degree days 477  
Since 1 July heating degree days 2561  
Cooling Degree Days 0 0  
Month to date cooling degree days 0  
Year to date cooling degree days 446  
Moisture  
Dew Point 16 °F    
Average Humidity 69    
Maximum Humidity 93    
Minimum Humidity 49    
Precipitation  
Precipitation 0.00 in 0.01 in 0.14 in (1996)
Month to date precipitation 0.13  
Year to date precipitation 18.50  
Sea Level Pressure  
Sea Level Pressure 30.00 in    
Wind  
Wind Speed 14 mph (SW)    
Max Wind Speed 20 mph    
Max Gust Speed 23 mph    
Visibility 10 miles    
Events Snow    
T = Trace of Precipitation, MM = Missing Value Source: NWS Daily Summary

Daily Weather History Graph

Daily Weather History Graph

Search for Another Location

Airport or City:

Trip Planner

Search our weather history database for the weather conditions in past years. The results will help you decide how hot, cold, wet, or windy it might be!

Date:

Astronomy

Dec. 10, 2011 Rise Set
Actual Time 8:06 AM CST 4:43 PM CST
Civil Twilight 7:31 AM CST 5:18 PM CST
Nautical Twilight 6:52 AM CST 5:56 PM CST
Astronomical Twilight 6:15 AM CST 6:33 PM CST
Moon 4:57 PM CST (12/10) 8:08 AM CST (12/10)
Length of Visible Light 9h 47m
Length of Day
8h 36m
Full, 100% of the Moon is Illuminated
Dec 10
Full
Dec 17
Last Quarter
Dec 24
New
Jan 1
First Quarter
Jan 9
Full

Hourly Weather History & Observations

Time (CST) Temp. Windchill Dew Point Humidity Pressure Visibility Wind Dir Wind Speed Gust Speed Precip Events Conditions
12:15 AM 12.2 °F -4.3 °F 5.0 °F 73% 30.09 in 10.0 mi SW 16.1 mph - N/A Snow Light Snow
12:35 AM 12.2 °F -3.1 °F 5.0 °F 73% 30.08 in 10.0 mi SSW 13.8 mph - N/A Snow Light Snow
12:55 AM 14.0 °F -0.8 °F 6.8 °F 73% 30.07 in 10.0 mi SSW 13.8 mph - N/A   Mostly Cloudy
1:15 AM 14.0 °F -3.4 °F 6.8 °F 73% 30.06 in 10.0 mi SSW 19.6 mph 23.0 mph N/A   Overcast
1:35 AM 14.0 °F -2.0 °F 6.8 °F 73% 30.05 in 10.0 mi SW 16.1 mph 23.0 mph N/A Snow Light Snow
1:55 AM 15.8 °F -0.2 °F 8.6 °F 73% 30.04 in 10.0 mi SSW 17.3 mph - N/A Snow Light Snow
2:15 AM 15.8 °F 0.3 °F 8.6 °F 73% 30.03 in 10.0 mi SW 16.1 mph - N/A Snow Light Snow
2:35 AM 17.6 °F 3.2 °F 8.6 °F 68% 30.03 in 10.0 mi SSW 15.0 mph - N/A   Overcast
2:55 AM 17.6 °F 3.2 °F 10.4 °F 73% 30.02 in 10.0 mi SSW 15.0 mph - N/A   Overcast
3:15 AM 17.6 °F 2.2 °F 10.4 °F 73% 30.02 in 10.0 mi SSW 17.3 mph 21.9 mph N/A   Overcast
3:55 AM 17.6 °F 2.2 °F 10.4 °F 73% 30.00 in 10.0 mi SSW 17.3 mph - N/A Snow Light Snow
4:15 AM 17.6 °F 1.7 °F 10.4 °F 73% 29.99 in 10.0 mi SW 18.4 mph - N/A Snow Light Snow
4:35 AM 17.6 °F 3.2 °F 10.4 °F 73% 29.99 in 10.0 mi SW 15.0 mph - N/A   Clear
4:55 AM 15.8 °F 1.4 °F 12.2 °F 86% 29.99 in 10.0 mi SSW 13.8 mph - N/A   Clear
5:15 AM 15.8 °F 1.4 °F 12.2 °F 86% 29.98 in 10.0 mi SW 13.8 mph - N/A   Clear
5:35 AM 17.6 °F 3.7 °F 14.0 °F 86% 29.99 in 10.0 mi SW 13.8 mph - N/A   Clear
5:55 AM 17.6 °F 3.2 °F 14.0 °F 86% 29.99 in 10.0 mi SW 15.0 mph - N/A   Clear
6:15 AM 19.4 °F 6.0 °F 14.0 °F 80% 29.99 in 10.0 mi SW 13.8 mph - N/A   Clear
6:35 AM 19.4 °F 6.6 °F 14.0 °F 80% 29.99 in 10.0 mi WSW 12.7 mph - N/A   Clear
6:55 AM 19.4 °F 6.0 °F 14.0 °F 80% 29.99 in 10.0 mi WSW 13.8 mph - N/A   Clear
7:15 AM 17.6 °F 7.3 °F 14.0 °F 86% 29.99 in 10.0 mi SW 8.1 mph - N/A   Clear
7:35 AM 19.4 °F 7.9 °F 15.8 °F 86% 29.99 in 10.0 mi SW 10.4 mph - N/A   Clear
7:55 AM 17.6 °F 5.0 °F 15.8 °F 93% 30.00 in 10.0 mi SW 11.5 mph - N/A   Clear
8:15 AM 19.4 °F 6.6 °F 15.8 °F 86% 30.00 in 10.0 mi SW 12.7 mph - N/A   Clear
8:35 AM 19.4 °F 6.6 °F 15.8 °F 86% 30.01 in 10.0 mi WSW 12.7 mph - N/A   Clear
8:55 AM 21.2 °F 8.9 °F 15.8 °F 80% 30.01 in 10.0 mi WSW 12.7 mph - N/A   Clear
9:15 AM 23.0 °F 11.1 °F 17.6 °F 80% 30.02 in 10.0 mi WSW 12.7 mph - N/A   Clear
9:35 AM 24.8 °F 13.4 °F 17.6 °F 74% 30.02 in 10.0 mi West 12.7 mph - N/A   Clear
9:55 AM 26.6 °F 14.7 °F 19.4 °F 74% 30.02 in 10.0 mi West 15.0 mph 19.6 mph N/A   Clear
10:15 AM 28.4 °F 16.2 °F 19.4 °F 69% 30.02 in 10.0 mi West 17.3 mph - N/A   Clear
10:35 AM 30.2 °F 18.9 °F 19.4 °F 64% 30.03 in 10.0 mi West 16.1 mph 21.9 mph N/A   Clear
11:15 AM 32.0 °F 21.6 °F 19.4 °F 60% 30.03 in 10.0 mi West 15.0 mph - N/A   Clear
11:35 AM 32.0 °F 23.0 °F 19.4 °F 60% 30.02 in 10.0 mi WNW 11.5 mph - N/A   Clear
11:55 AM 33.8 °F 24.8 °F 19.4 °F 56% 30.02 in 10.0 mi WNW 12.7 mph - N/A   Clear
12:15 PM 35.6 °F 28.0 °F 21.2 °F 56% 30.01 in 10.0 mi WNW 10.4 mph - N/A   Clear
12:35 PM 35.6 °F 27.5 °F 21.2 °F 56% 30.01 in 10.0 mi West 11.5 mph - N/A   Clear
12:55 PM 37.4 °F 30.8 °F 21.2 °F 52% 30.00 in 10.0 mi West 9.2 mph - N/A   Clear
1:15 PM 37.4 °F 30.8 °F 21.2 °F 52% 29.99 in 10.0 mi West 9.2 mph - N/A   Clear
1:35 PM 37.4 °F 29.8 °F 21.2 °F 52% 29.99 in 10.0 mi West 11.5 mph - N/A   Clear
1:55 PM 39.2 °F 33.0 °F 23.0 °F 52% 29.98 in 10.0 mi WSW 9.2 mph - N/A   Clear
2:15 PM 39.2 °F 32.5 °F 23.0 °F 52% 29.98 in 10.0 mi WSW 10.4 mph - N/A   Clear
2:35 PM 41.0 °F 35.8 °F 23.0 °F 49% 29.97 in 10.0 mi SW 8.1 mph - N/A   Clear
2:55 PM 41.0 °F 33.9 °F 23.0 °F 49% 29.97 in 10.0 mi WSW 12.7 mph 17.3 mph N/A   Clear
3:15 PM 41.0 °F 34.3 °F 23.0 °F 49% 29.96 in 10.0 mi SW 11.5 mph - N/A   Clear
3:35 PM 41.0 °F 34.7 °F 23.0 °F 49% 29.96 in 10.0 mi SW 10.4 mph - N/A   Clear
4:15 PM 37.4 °F 30.3 °F 23.0 °F 56% 29.94 in 10.0 mi SSW 10.4 mph - N/A   Clear
4:35 PM 37.4 °F 29.8 °F 23.0 °F 56% 29.94 in 10.0 mi SSW 11.5 mph - N/A   Clear
4:55 PM 35.6 °F 27.1 °F 23.0 °F 60% 29.92 in 10.0 mi SSW 12.7 mph - N/A   Clear
5:15 PM 33.8 °F 24.8 °F 23.0 °F 65% 29.92 in 10.0 mi SSW 12.7 mph - N/A   Clear
5:35 PM 32.0 °F 23.0 °F 23.0 °F 69% 29.92 in 10.0 mi SSW 11.5 mph - N/A   Clear
5:55 PM 32.0 °F 23.6 °F 21.2 °F 64% 29.92 in 10.0 mi SSW 10.4 mph - N/A   Clear
6:15 PM 28.4 °F 19.7 °F 21.2 °F 74% 29.92 in 10.0 mi South 9.2 mph - N/A   Clear
6:35 PM 28.4 °F 18.5 °F 19.4 °F 69% 29.90 in 10.0 mi SSW 11.5 mph - N/A   Clear
6:55 PM 28.4 °F 18.0 °F 21.2 °F 74% 29.89 in 10.0 mi SSW 12.7 mph - N/A   Clear
7:15 PM 32.0 °F 23.0 °F 23.0 °F 69% 29.88 in 10.0 mi SSW 11.5 mph - N/A   Clear
7:35 PM 32.0 °F 22.5 °F 23.0 °F 69% 29.87 in 10.0 mi SSW 12.7 mph - N/A   Clear
7:55 PM 30.2 °F 22.6 °F 23.0 °F 75% 29.87 in 10.0 mi SSW 8.1 mph - N/A   Clear
8:15 PM 28.4 °F 19.7 °F 23.0 °F 80% 29.87 in 10.0 mi SSW 9.2 mph - N/A   Clear
8:35 PM 32.0 °F 22.1 °F 23.0 °F 69% 29.86 in 10.0 mi SSW 13.8 mph - N/A   Clear
8:55 PM 32.0 °F 21.2 °F 23.0 °F 69% 29.84 in 10.0 mi SSW 16.1 mph - N/A   Clear
9:15 PM 32.0 °F 22.1 °F 23.0 °F 69% 29.84 in 10.0 mi SSW 13.8 mph - N/A   Clear
9:35 PM 32.0 °F 20.5 °F 24.8 °F 75% 29.84 in 10.0 mi SW 18.4 mph - N/A   Clear
9:55 PM 33.8 °F 23.5 °F 24.8 °F 70% 29.84 in 10.0 mi SW 16.1 mph - N/A   Clear
10:15 PM 32.0 °F 21.2 °F 23.0 °F 69% 29.83 in 10.0 mi SSW 16.1 mph - N/A   Clear
10:35 PM 32.0 °F 20.8 °F 23.0 °F 69% 29.82 in 10.0 mi SSW 17.3 mph - N/A   Clear
10:55 PM 32.0 °F 20.5 °F 23.0 °F 69% 29.82 in 10.0 mi SSW 18.4 mph - N/A   Clear
11:15 PM 32.0 °F 22.1 °F 23.0 °F 69% 29.82 in 10.0 mi SSW 13.8 mph - N/A   Clear
11:35 PM 32.0 °F 22.1 °F 21.2 °F 64% 29.82 in 10.0 mi SSW 13.8 mph - N/A   Clear
11:55 PM 32.0 °F 20.8 °F 23.0 °F 69% 29.82 in 10.0 mi SSW 17.3 mph - N/A   Clear